Tucumcari, NM

5:58 AM MDT on August 27, 2016 (GMT -0600)
Tucumcari Municipal

Weather History for KTCC - December, 2012

Change the Weather History Date:

Tuesday, December 11, 2012

  Actual Average Record
Temperature  
Mean Temperature 32 °F -  
Max Temperature 44 °F 54 °F 75 °F (1977)
Min Temperature 21 °F 25 °F 3 °F (1917)
Degree Days  
Heating Degree Days 32    
Moisture  
Dew Point 15 °F    
Average Humidity 52    
Maximum Humidity 74    
Minimum Humidity 28    
Precipitation  
Precipitation 0.00 in - - ()
Sea Level Pressure  
Sea Level Pressure 30.06 in    
Wind  
Wind Speed 6 mph (WSW)    
Max Wind Speed 17 mph    
Max Gust Speed -    
Visibility 10 miles    
Events      
Averages and records for this station are not official NWS values.
T = Trace of Precipitation, MM = Missing Value Source: NWS Daily Summary

Daily Weather History Graph

Daily Weather History Graph

Search for Another Location

Airport or City:

Trip Planner

Search our weather history database for the weather conditions in past years. The results will help you decide how hot, cold, wet, or windy it might be!

Date:

Astronomy

Dec. 11, 2012 Rise Set
Actual Time 6:53 AM MST 4:42 PM MST
Civil Twilight 6:24 AM MST 5:10 PM MST
Nautical Twilight 5:53 AM MST 5:42 PM MST
Astronomical Twilight 5:22 AM MST 6:13 PM MST
Moon 4:52 AM MST (12/11) 3:22 PM MST (12/11)
Length of Visible Light 10h 45m
Length of Day
9h 49m
Waning Crescent, 4% of the Moon is Illuminated
Dec 11
Waning Crescent
Dec 13
New
Dec 19
First Quarter
Dec 28
Full
Jan 4
Last Quarter

Hourly Weather History & Observations

Time (MST) Temp. Windchill Dew Point Humidity Pressure Visibility Wind Dir Wind Speed Gust Speed Precip Events Conditions
12:53 AM 23.0 °F 18.4 °F 16.0 °F 74% 30.01 in 10.0 mi SW 3.5 mph - N/A   Clear
1:53 AM 23.0 °F 14.7 °F 16.0 °F 74% 30.01 in 10.0 mi West 6.9 mph - N/A   Clear
2:53 AM 24.1 °F 13.7 °F 15.1 °F 69% 30.00 in 10.0 mi WNW 10.4 mph - N/A   Clear
3:53 AM 24.1 °F 13.1 °F 14.0 °F 65% 30.01 in 10.0 mi NW 11.5 mph - N/A   Clear
4:53 AM 25.0 °F 16.3 °F 12.9 °F 60% 30.02 in 10.0 mi West 8.1 mph - N/A   Clear
5:53 AM 24.1 °F 15.2 °F 12.9 °F 62% 30.05 in 10.0 mi WNW 8.1 mph - N/A   Clear
6:53 AM 21.9 °F 14.5 °F 12.0 °F 66% 30.08 in 10.0 mi NW 5.8 mph - N/A   Clear
7:53 AM 26.1 °F - 15.1 °F 63% 30.11 in 10.0 mi Calm Calm - N/A   Clear
8:53 AM 30.9 °F 27.5 °F 15.1 °F 52% 30.13 in 10.0 mi NNE 3.5 mph - N/A   Clear
9:53 AM 35.1 °F 29.3 °F 15.1 °F 44% 30.13 in 10.0 mi North 6.9 mph - N/A   Clear
10:53 AM 39.0 °F 34.8 °F 17.1 °F 41% 30.12 in 10.0 mi NE 5.8 mph - N/A   Clear
11:53 AM 41.0 °F 38.0 °F 16.0 °F 36% 30.08 in 10.0 mi ENE 4.6 mph - N/A   Clear
12:53 PM 43.0 °F - 16.0 °F 34% 30.07 in 10.0 mi Calm Calm - N/A   Clear
1:53 PM 43.0 °F - 14.0 °F 31% 30.06 in 10.0 mi Calm Calm - N/A   Clear
2:53 PM 44.1 °F 42.5 °F 12.9 °F 28% 30.04 in 10.0 mi Variable 3.5 mph - N/A   Clear
3:53 PM 44.1 °F 40.8 °F 15.1 °F 31% 30.04 in 10.0 mi WSW 5.8 mph - N/A   Clear
4:53 PM 37.0 °F 31.6 °F 16.0 °F 42% 30.06 in 10.0 mi South 6.9 mph - N/A   Clear
5:53 PM 33.1 °F 26.9 °F 16.0 °F 50% 30.07 in 10.0 mi South 6.9 mph - N/A   Clear
6:53 PM 28.9 °F 21.1 °F 16.0 °F 58% 30.09 in 10.0 mi South 8.1 mph - N/A   Clear
7:53 PM 27.0 °F 20.5 °F 15.1 °F 61% 30.09 in 10.0 mi SSW 5.8 mph - N/A   Clear
8:53 PM 25.0 °F 17.1 °F 14.0 °F 63% 30.06 in 10.0 mi SSW 6.9 mph - N/A   Clear
9:53 PM 24.1 °F - 12.0 °F 60% 30.04 in 10.0 mi Calm Calm - N/A   Clear
10:53 PM 30.9 °F 21.7 °F 10.9 °F 43% 30.01 in 10.0 mi SSW 11.5 mph - N/A   Clear
11:53 PM 32.0 °F 20.8 °F 12.9 °F 45% 30.00 in 10.0 mi SW 17.3 mph - N/A   Clear